[[{"header":{"parameterUnit":"m.s-1","parameterCategory":1,"la1":30.2991,"la2":30.254,"lo1":-89.0895,"lo2":-89.0444,"dy":0.0017,"dx":0.0017,"nx":28,"ny":28,"refTime":"2023-11-08T09:00:00:Z","depth":0,"parameterNumber":2,"parameterNumberName":"U-component_of_WINDS"},"data":[0,0,0,0,0,0,0,0,0,0,0,0,0,0,0,0,0,0,0,0,0,0,0,0,0,0,0,0,0,0,0,0,0,0,0,0,0,0,0,0,0,0,0,0,0,0,0,0,0,0,0,0,0,0,0,0,0,0,-2.1938,-2.1937,0,-2.1868,-2.1867,-2.1866,-2.1794,-2.1793,-2.1792,-2.1791,-2.172,-2.1719,-2.1718,0,0,0,0,0,0,0,0,0,0,0,0,0,-2.2008,-2.2008,-2.1938,-2.1937,-2.1936,-2.1868,-2.1867,-2.1866,-2.1794,-2.1793,-2.1792,-2.1791,-2.172,-2.1719,-2.1717,0,0,0,0,0,0,0,0,0,0,0,0,0,-2.1962,-2.2007,-2.1938,-2.1892,-2.1887,-2.1868,-2.1867,-2.1866,-2.1795,-2.1793,-2.1792,-2.179,-2.172,-2.1719,-2.1717,-2.1737,0,0,-2.1713,-2.1712,0,0,0,0,0,0,0,0,-2.1965,-2.196,-2.19,-2.1895,-2.189,-2.1838,-2.1865,-2.1823,-2.1795,-2.183,-2.1791,-2.179,-2.176,-2.1755,-2.1745,-2.1734,-2.1731,-2.1713,-2.1712,-2.1711,-2.1711,0,0,0,0,0,0,0,-2.1968,-2.1962,-2.191,-2.1899,-2.1893,-2.1875,-2.1866,-2.1857,-2.1804,-2.1827,-2.1821,-2.1814,-2.1757,-2.1747,-2.1743,-2.173,-2.1713,-2.1711,-2.171,-2.171,-2.1729,-2.1731,0,0,0,0,0,0,-2.1978,-2.1965,-2.1912,-2.1908,-2.1924,-2.1875,-2.1865,-2.1856,-2.1804,-2.1795,-2.1815,-2.1811,-2.175,-2.1745,-2.174,-2.1758,-2.1711,-2.171,-2.1709,-2.1728,-2.1729,-2.1731,0,0,0,0,0,0,-2.198,-2.1974,-2.1915,-2.1935,-2.1926,-2.1875,-2.1865,-2.1856,-2.1845,-2.1795,-2.1786,-2.1815,-2.1749,-2.1742,-2.1738,-2.1755,-2.1709,-2.1708,-2.1726,-2.1728,-2.173,-2.1796,0,0,0,0,0,0,-2.1983,-2.1975,-2.1983,-2.1936,-2.1925,-2.1914,-2.1866,-2.1855,-2.1843,-2.1836,-2.1792,-2.1783,-2.1747,-2.1741,-2.1737,-2.1752,-2.1706,-2.1724,-2.1727,-2.173,-2.1792,-2.18,-2.1807,0,0,0,0,0,-2.1985,-2.2004,-2.1983,-2.1977,-2.1933,-2.1915,-2.1909,-2.1867,-2.1845,-2.1851,-2.1819,-2.1785,-2.1754,-2.1741,-2.1736,-2.1751,-2.1723,-2.1726,-2.1729,-2.1789,-2.1799,-2.1807,0,0,0,0,0,0,-2.2055,-2.1997,-2.1974,-2.1978,-2.1952,-2.1903,-2.191,-2.188,-2.186,-2.1854,-2.1803,-2.1794,-2.1795,-2.1773,-2.1759,-2.1766,-2.1734,-2.1736,-2.1781,-2.179,-2.1797,-2.1801,-2.1705,0,0,0,0,0,-2.2071,-2.2061,-2.2012,-2.202,-2.2009,-2.1962,-2.1953,-2.1923,-2.1894,-2.1882,-2.185,-2.1823,-2.1807,-2.1797,-2.178,-2.1789,-2.1777,-2.1797,-2.1805,-2.1811,-2.1813,-2.1814,-2.1821,-2.1741,-2.1741,-2.1741,0,0,-2.2104,-2.2071,-2.2068,-2.2034,-2.201,-2.2,-2.1953,-2.1946,-2.1938,-2.1881,-2.1874,-2.185,-2.1816,-2.1818,-2.1817,-2.1799,-2.1833,-2.1815,-2.182,-2.1819,-2.1818,-2.1825,-2.1832,-2.1744,-2.1743,-2.1743,0,0,-2.2157,-2.2133,-2.2136,-2.2114,-2.2078,-2.2047,-2.2048,-2.2004,-2.1985,-2.1978,-2.1934,-2.1924,-2.1899,-2.1876,-2.1861,-2.1906,-2.1873,-2.1902,-2.194,-2.1942,-2.1948,-2.1953,-2.1967,-2.1973,-2.1904,-2.1905,-2.1905,0,-2.2202,-2.2186,-2.2142,-2.2137,-2.2122,-2.207,-2.2073,-2.2053,-2.2014,-2.2005,-2.1986,-2.1951,-2.1925,-2.192,-2.1931,-2.1921,-2.192,-2.1906,-2.1951,-2.1955,-2.196,-2.1972,-2.1978,-2.1908,-2.1908,-2.1907,-2.1907,0,-2.2242,-2.2232,-2.2239,-2.2202,-2.2188,-2.2187,-2.2142,-2.2134,-2.2105,-2.2076,-2.2068,-2.2035,-2.2009,-2.2007,-2.1979,-2.1997,-2.1987,-2.196,-2.1926,-2.1972,-2.1982,-2.1987,-2.1913,-2.1912,-2.1911,-2.191,0,0,-2.2337,-2.2275,-2.2278,-2.226,-2.2217,-2.2208,-2.2204,-2.2179,-2.2172,-2.2147,-2.2141,-2.212,-2.2095,-2.2078,-2.2047,-2.2049,-2.2084,-2.2022,-2.202,-2.2033,-2.21,-2.2119,-2.2125,-2.2063,-2.2064,-2.2065,-2.2102,0,-2.2381,-2.2371,-2.2331,-2.2332,-2.2321,-2.2272,-2.2268,-2.2241,-2.2214,-2.22,-2.217,-2.2155,-2.2124,-2.2113,-2.2113,-2.208,-2.2097,-2.2077,-2.2056,-2.2055,-2.2063,-2.2131,-2.2151,-2.2188,-2.2106,-2.2107,-2.2107,0,-2.2432,-2.2409,-2.241,-2.2366,-2.2359,-2.2357,-2.233,-2.2318,-2.2286,-2.2266,-2.2247,-2.2212,-2.2204,-2.2174,-2.2162,-2.2149,-2.2138,-2.2121,-2.2122,-2.2116,-2.2083,-2.2125,-2.2199,-2.2203,-2.2114,-2.2113,-2.2113,0,-2.2498,-2.2468,-2.2464,-2.245,-2.24,-2.2398,-2.2377,-2.2344,-2.2331,-2.2307,-2.2298,-2.2274,-2.2261,-2.2243,-2.2203,-2.2185,-2.2194,-2.2161,-2.2176,-2.2177,-2.2178,-2.2178,-2.2248,-2.2175,-2.2175,-2.2175,-2.2175,0,-2.2551,-2.2552,-2.2492,-2.2489,-2.2489,-2.2443,-2.2444,-2.2418,-2.2389,-2.238,-2.2337,-2.2329,-2.2277,-2.2263,-2.2232,-2.2225,-2.222,-2.2202,-2.2193,-2.2205,-2.2207,-2.2195,-2.2191,-2.2176,-2.2176,-2.2176,-2.2176,0,-2.2623,-2.2584,-2.2575,-2.2528,-2.2516,-2.2518,-2.2477,-2.2472,-2.2442,-2.2431,-2.2426,-2.2379,-2.236,-2.2318,-2.2289,-2.2267,-2.2267,-2.2253,-2.2278,-2.2272,-2.2288,-2.2287,-2.2352,-2.2357,-2.2283,-2.2284,-2.2285,0,-2.2658,-2.2658,-2.2611,-2.2601,-2.2582,-2.2568,-2.2554,-2.2509,-2.2496,-2.2459,-2.2458,-2.2436,-2.2415,-2.2388,-2.235,-2.2327,-2.231,-2.2335,-2.2306,-2.2317,-2.2308,-2.2307,-2.2306,-2.2341,-2.2342,-2.2342,-2.2343,0,-2.2724,-2.2704,-2.2686,-2.2661,-2.2646,-2.2624,-2.2599,-2.2594,-2.2543,-2.2531,-2.2511,-2.2495,-2.2464,-2.2442,-2.2413,-2.2391,-2.2358,-2.2353,-2.2354,-2.2365,-2.2378,-2.2369,-2.2293,-2.2351,-2.235,-2.235,-2.2349,-2.2349,-2.2777,-2.2774,-2.2739,-2.272,-2.2697,-2.2676,-2.2668,-2.2637,-2.262,-2.2591,-2.2566,-2.2548,-2.2515,-2.2472,-2.2452,-2.2436,-2.242,-2.2424,-2.2424,-2.2425,-2.2429,-2.2383,-2.2431,-2.2431,-2.2431,-2.2431,-2.243,0,-2.2838,-2.2814,-2.2797,-2.2764,-2.2748,-2.272,-2.2692,-2.268,-2.2665,-2.2637,-2.2618,-2.2594,-2.2572,-2.2534,-2.2508,-2.2504,-2.2488,-2.2498,-2.2497,-2.2492,-2.2446,-2.2445,-2.2511,-2.2511,-2.2511,-2.2511,-2.2511,-2.2511,-2.2868,-2.286,-2.2836,-2.2817,-2.2792,-2.2774,-2.276,-2.2739,-2.2716,-2.2692,-2.2673,-2.2649,-2.2616,-2.2588,-2.2566,-2.2555,-2.2547,-2.2562,-2.2546,-2.2503,-2.2495,-2.2488,-2.2487,-2.2561,-2.2561,-2.2593,-2.2593,-2.2593]},{"header":{"parameterUnit":"m.s-1","parameterCategory":1,"la1":30.2991,"la2":30.254,"lo1":-89.0895,"lo2":-89.0444,"dy":0.0017,"dx":0.0017,"nx":28,"ny":28,"refTime":"2023-11-08T09:00:00:Z","depth":0,"parameterNumber":3,"parameterNumberName":"V-component_of_WINDS"},"data":[0,0,0,0,0,0,0,0,0,0,0,0,0,0,0,0,0,0,0,0,0,0,0,0,0,0,0,0,0,0,0,0,0,0,0,0,0,0,0,0,0,0,0,0,0,0,0,0,0,0,0,0,0,0,0,0,0,0,1.1932,1.1933,0,1.2037,1.2039,1.204,1.2025,1.2023,1.2021,1.2019,1.2131,1.2136,1.214,0,0,0,0,0,0,0,0,0,0,0,0,0,1.1721,1.1725,1.1931,1.1933,1.1934,1.2037,1.2039,1.204,1.2025,1.2023,1.2021,1.2019,1.213,1.2135,1.2141,0,0,0,0,0,0,0,0,0,0,0,0,0,1.1818,1.1726,1.1931,1.1939,1.1941,1.2037,1.2039,1.204,1.2025,1.2023,1.202,1.2018,1.2128,1.2135,1.2141,1.2238,0,0,1.2163,1.2166,0,0,0,0,0,0,0,0,1.1813,1.1826,1.1936,1.1939,1.1941,1.2015,1.2005,1.2107,1.2026,1.1993,1.2019,1.2016,1.2095,1.2104,1.213,1.2243,1.2248,1.2163,1.2168,1.2171,1.2173,0,0,0,0,0,0,0,1.1806,1.1821,1.1973,1.1938,1.1941,1.1939,1.195,1.2025,1.2058,1.1996,1.1995,1.2008,1.2096,1.2124,1.2133,1.225,1.2163,1.2169,1.2174,1.2176,1.2451,1.2454,0,0,0,0,0,0,1.1797,1.1816,1.197,1.1977,1.1869,1.1945,1.1957,1.1994,1.2057,1.2064,1.201,1.2007,1.2113,1.2125,1.2137,1.2257,1.217,1.2177,1.2181,1.2448,1.2452,1.2455,0,0,0,0,0,0,1.1792,1.1811,1.1966,1.1896,1.1916,1.1951,1.1993,1.1997,1.2025,1.2067,1.2074,1.2032,1.2111,1.2127,1.2214,1.2261,1.218,1.2186,1.2445,1.2449,1.2454,1.2496,0,0,0,0,0,0,1.1786,1.1809,1.1845,1.1897,1.1919,1.204,1.1996,1.2001,1.2037,1.2034,1.209,1.2097,1.211,1.2203,1.222,1.2269,1.2192,1.2441,1.2447,1.2452,1.2491,1.2502,1.2511,0,0,0,0,0,1.1779,1.1852,1.1847,1.1865,1.1965,1.2042,1.2055,1.2068,1.2041,1.2078,1.2106,1.2095,1.2252,1.2212,1.2231,1.2283,1.2438,1.2445,1.2452,1.2487,1.25,1.2511,0,0,0,0,0,0,1.1805,1.1859,1.1854,1.1946,1.199,1.2039,1.2087,1.2082,1.2135,1.213,1.2145,1.2158,1.2247,1.2273,1.2227,1.2381,1.2341,1.2353,1.2361,1.2374,1.2384,1.2377,1.2198,0,0,0,0,0,1.1822,1.1879,1.1923,1.2001,1.2023,1.2051,1.2085,1.2092,1.2138,1.2157,1.2191,1.2237,1.2298,1.2337,1.2394,1.2494,1.2508,1.2539,1.2549,1.2557,1.2568,1.2627,1.2642,1.2479,1.2479,1.2478,0,0,1.1857,1.1893,1.1928,1.2007,1.2042,1.2103,1.2067,1.2132,1.2178,1.2167,1.2252,1.2278,1.2331,1.2426,1.247,1.2451,1.2616,1.2566,1.2572,1.2579,1.2636,1.2651,1.2665,1.2483,1.2482,1.2482,0,0,1.1952,1.1984,1.2054,1.2089,1.2142,1.2161,1.2178,1.2229,1.2246,1.2331,1.2325,1.2381,1.2483,1.2522,1.2556,1.2669,1.2663,1.2687,1.2741,1.2799,1.2811,1.2823,1.2867,1.2882,1.2697,1.2697,1.2697,0,1.199,1.208,1.209,1.2158,1.2194,1.2186,1.2258,1.2293,1.2362,1.2388,1.2366,1.2496,1.2531,1.2637,1.2665,1.2691,1.2713,1.2682,1.2808,1.282,1.2831,1.2874,1.289,1.27,1.2699,1.2699,1.2699,0,1.2125,1.2188,1.2238,1.2306,1.2347,1.2416,1.244,1.2481,1.2484,1.2506,1.2595,1.2636,1.2704,1.2729,1.2732,1.2836,1.2824,1.2804,1.2765,1.285,1.289,1.2906,1.2704,1.2703,1.2702,1.2701,0,0,1.2241,1.2314,1.2333,1.2365,1.2423,1.2473,1.2543,1.2609,1.2646,1.2694,1.2755,1.2843,1.2827,1.2865,1.2873,1.2922,1.3014,1.2898,1.29,1.2921,1.3137,1.3153,1.3171,1.3009,1.3012,1.3015,1.3133,0,1.2345,1.2468,1.2481,1.2592,1.2653,1.2646,1.2708,1.2752,1.2775,1.2831,1.2856,1.2919,1.2891,1.2914,1.2963,1.2993,1.3058,1.2984,1.307,1.3073,1.3061,1.3192,1.3209,1.3319,1.3149,1.3151,1.3153,0,1.2483,1.2536,1.2653,1.2706,1.2732,1.2787,1.285,1.2902,1.2953,1.2966,1.301,1.3012,1.3087,1.3043,1.3149,1.3098,1.3134,1.3154,1.3159,1.317,1.3121,1.3211,1.3354,1.3372,1.3177,1.3175,1.3174,0,1.2561,1.2661,1.2745,1.2772,1.2835,1.2874,1.2903,1.295,1.299,1.3045,1.3072,1.3135,1.317,1.322,1.3241,1.3206,1.3347,1.3304,1.3364,1.3363,1.3396,1.3394,1.3551,1.3413,1.3413,1.3412,1.3412,0,1.2678,1.2751,1.2781,1.2834,1.2916,1.293,1.3012,1.3039,1.3082,1.3141,1.3139,1.3195,1.3216,1.3277,1.3293,1.3381,1.3396,1.3411,1.3415,1.3414,1.3412,1.344,1.3434,1.3417,1.3416,1.3415,1.3414,0,1.278,1.2803,1.2895,1.2947,1.2962,1.3021,1.3067,1.3118,1.314,1.3215,1.3234,1.3269,1.334,1.3364,1.345,1.3461,1.3565,1.356,1.3548,1.355,1.361,1.3605,1.3793,1.382,1.366,1.3662,1.3663,0,1.2855,1.2911,1.297,1.3009,1.3039,1.3101,1.3142,1.3159,1.3201,1.3265,1.331,1.338,1.3438,1.3552,1.3587,1.3653,1.3653,1.3714,1.3663,1.3661,1.3659,1.3657,1.3665,1.3725,1.3726,1.3728,1.3729,0,1.2987,1.2996,1.3054,1.3117,1.3166,1.3216,1.3265,1.3298,1.3322,1.3371,1.3443,1.3488,1.3576,1.3648,1.3716,1.3747,1.3745,1.3744,1.3762,1.3763,1.3755,1.3765,1.3578,1.3741,1.3739,1.3739,1.3738,1.3737,1.3081,1.3132,1.3182,1.3248,1.3286,1.3333,1.3385,1.3413,1.3474,1.3547,1.3553,1.3632,1.3684,1.3776,1.3811,1.3875,1.3858,1.3883,1.3891,1.3898,1.3905,1.3742,1.3887,1.3887,1.3886,1.3886,1.3886,0,1.3217,1.3249,1.3309,1.3378,1.343,1.342,1.3474,1.352,1.3589,1.3637,1.3694,1.378,1.3849,1.3889,1.396,1.4004,1.4004,1.4022,1.4021,1.403,1.3913,1.3892,1.4021,1.4021,1.4021,1.4021,1.4021,1.4021,1.3294,1.3381,1.3396,1.3504,1.3536,1.3613,1.3645,1.3689,1.3728,1.3823,1.3881,1.3906,1.3953,1.4027,1.4091,1.4102,1.413,1.415,1.4159,1.4051,1.4037,1.4024,1.4005,1.4155,1.4155,1.4271,1.4272,1.4273]}]]